Weather History for KNBT - May, 2014

Change the Weather History Date:

Tuesday, May 6, 2014

  Actual Average (KMRH) Record (KMRH)
Temperature  
Mean Temperature 72 °F -  
Max Temperature 81 °F 74 °F 84 °F (2014)
Min Temperature 64 °F 56 °F 42 °F (1973)
Cooling Degree Days 7    
Growing Degree Days 22 (Base 50)    
Moisture  
Dew Point 64 °F    
Average Humidity 77    
Maximum Humidity 90    
Minimum Humidity 60    
Precipitation  
Precipitation 0.00 in - - ()
Sea Level Pressure  
Sea Level Pressure 29.93 in    
Wind  
Wind Speed 10 mph (East)    
Max Wind Speed 17 mph    
Max Gust Speed 22 mph    
Visibility 10 miles    
Events      
Averages and records for this station are not official NWS values.
T = Trace of Precipitation, MM = Missing Value Source: NWS Daily Summary

Daily Weather History Graph

Daily Weather History Graph

Search for Another Location

Airport or City:

Trip Planner

Search our weather history database for the weather conditions in past years. The results will help you decide how hot, cold, wet, or windy it might be!

Date:

Astronomy

May. 06, 2014 Rise Set
Actual Time 6:09 AM EDT 7:55 PM EDT
Civil Twilight 5:42 AM EDT 8:22 PM EDT
Nautical Twilight 5:09 AM EDT 8:56 PM EDT
Astronomical Twilight 4:34 AM EDT 9:31 PM EDT
Moon 12:21 PM EDT (5/6) 1:15 AM EDT (5/6)
Length of Visible Light 14h 40m
Length of Day
13h 45m
Waxing Crescent, 46% of the Moon is Illuminated
May 6
Waxing Crescent
May 6
First Quarter
May 14
Full
May 21
Last Quarter
May 28
New

Hourly Weather History & Observations

Time (EDT) Temp. Heat Index Dew Point Humidity Pressure Visibility Wind Dir Wind Speed Gust Speed Precip Events Conditions
12:33 AM 66.9 °F - 60.1 °F 79% 29.92 in 10.0 mi SSE 8.1 mph - N/A   Mostly Cloudy
12:56 AM 66.9 °F - 61.0 °F 81% 29.93 in 10.0 mi SSE 6.9 mph - N/A   Overcast
1:18 AM 66.9 °F - 61.0 °F 81% 29.90 in 10.0 mi SE 8.1 mph - N/A   Scattered Clouds
1:56 AM 66.9 °F - 61.0 °F 81% 29.91 in 10.0 mi SSE 5.8 mph - N/A   Scattered Clouds
2:06 AM 64.9 °F - 62.1 °F 90% 29.90 in 10.0 mi SSE 4.6 mph - N/A   Mostly Cloudy
2:56 AM 70.0 °F - 63.0 °F 78% 29.89 in 10.0 mi SE 10.4 mph - N/A   Overcast
3:56 AM 70.0 °F - 64.9 °F 84% 29.87 in 10.0 mi SSE 11.5 mph - N/A   Overcast
7:56 AM 73.0 °F - 68.0 °F 84% 29.88 in 8.0 mi WSW 9.2 mph - N/A   Clear
8:56 AM 73.9 °F - 66.9 °F 79% 29.89 in 9.0 mi West 13.8 mph - N/A   Clear
9:56 AM 73.9 °F - 66.9 °F 79% 29.90 in 10.0 mi West 13.8 mph - N/A   Clear
10:56 AM 75.0 °F - 66.9 °F 76% 29.91 in 10.0 mi West 10.4 mph - N/A   Clear
11:56 AM 78.1 °F - 66.0 °F 66% 29.91 in 10.0 mi WNW 10.4 mph - N/A   Clear
12:26 PM 79.0 °F - 64.9 °F 62% 29.90 in 10.0 mi NNW 12.7 mph - N/A   Clear
12:56 PM 79.0 °F - 64.0 °F 60% 29.91 in 10.0 mi North 12.7 mph - N/A   Clear
1:56 PM 80.1 °F 81.9 °F 64.9 °F 60% 29.91 in 10.0 mi North 13.8 mph - N/A   Clear
2:56 PM 80.1 °F 81.9 °F 64.9 °F 60% 29.91 in 10.0 mi North 8.1 mph - N/A   Clear
3:56 PM 78.1 °F - 64.9 °F 64% 29.90 in 10.0 mi NE 12.7 mph - N/A   Clear
4:56 PM 73.9 °F - 66.0 °F 76% 29.92 in 10.0 mi ENE 17.3 mph 21.9 mph N/A   Clear
5:56 PM 71.1 °F - 64.0 °F 78% 29.94 in 10.0 mi ENE 13.8 mph - N/A   Clear
6:56 PM 70.0 °F - 64.0 °F 81% 29.96 in 10.0 mi ENE 13.8 mph - N/A   Clear
7:56 PM 66.9 °F - 62.1 °F 84% 29.99 in 10.0 mi ENE 13.8 mph - N/A   Clear
8:56 PM 66.0 °F - 61.0 °F 84% 30.01 in 10.0 mi ENE 17.3 mph - N/A   Clear
9:56 PM 66.0 °F - 60.1 °F 81% 30.03 in 10.0 mi ENE 12.7 mph - N/A   Clear
10:56 PM 66.0 °F - 60.1 °F 81% 30.05 in 10.0 mi ENE 13.8 mph - N/A   Clear
11:56 PM 66.0 °F - 61.0 °F 84% 30.06 in 10.0 mi East 13.8 mph - N/A   Partly Cloudy